This is the latest recevied weather packets stored in our database for station/object DK6MR. If no packets are shown the sender has not sent any weather packets the latest 10 day(s).
| Time | Temp. | Humidity | Pressure | Rain* | Wind** | Luminosity | Snow |
|---|---|---|---|---|---|---|---|
| 1777467988 | 20° C | 28% | 1022.3 hPa | 0 mm | - | - | - |
| 1777467087 | 20° C | 28% | 1022.3 hPa | 0 mm | - | - | - |
| 1777466186 | 20° C | 28% | 1022.3 hPa | 0 mm | - | - | - |
| 1777465285 | 19.44° C | 28% | 1022.3 hPa | 0 mm | - | - | - |
| 1777464384 | 20° C | 30% | 1022.3 hPa | 0 mm | - | - | - |
| 1777463483 | 20° C | 29% | 1022.3 hPa | 0 mm | - | - | - |
| 1777462581 | 18.89° C | 29% | 1022.3 hPa | 0 mm | - | - | - |
| 1777461681 | 18.89° C | 28% | 1022.3 hPa | 0 mm | - | - | - |
| 1777460780 | 19.44° C | 27% | 1022.7 hPa | 0 mm | - | - | - |
| 1777459879 | 18.33° C | 30% | 1022.7 hPa | 0 mm | - | - | - |
| 1777458978 | 18.33° C | 30% | 1022.7 hPa | 0 mm | - | - | - |
| 1777458077 | 18.33° C | 29% | 1023 hPa | 0 mm | - | - | - |
| 1777457176 | 17.78° C | 29% | 1023 hPa | 0 mm | - | - | - |
| 1777456275 | 17.78° C | 34% | 1023 hPa | 0 mm | - | - | - |
| 1777455374 | 17.22° C | 30% | 1023 hPa | 0 mm | - | - | - |
| 1777454473 | 17.22° C | 30% | 1023 hPa | 0 mm | - | - | - |
| 1777453572 | 17.22° C | 30% | 1022.7 hPa | 0 mm | - | - | - |
| 1777452671 | 17.22° C | 32% | 1022.7 hPa | 0 mm | - | - | - |
| 1777451770 | 16.67° C | 34% | 1023 hPa | 0 mm | - | - | - |
| 1777450869 | 15.56° C | 35% | 1022.7 hPa | 0 mm | - | - | - |
| 1777449968 | 15° C | 37% | 1023 hPa | 0 mm | - | - | - |
| 1777449067 | 15° C | 42% | 1023 hPa | 0 mm | - | - | - |
| 1777448166 | 13.89° C | 43% | 1022.7 hPa | 0 mm | - | - | - |
| 1777447265 | 12.78° C | 45% | 1022.7 hPa | 0 mm | - | - | - |
| 1777446364 | 11.67° C | 48% | 1022.3 hPa | 0 mm | - | - | - |
* Rain latest hour (hover to see other rain measurements)
** Current wind speed in m/s (hover to see current wind gust speed)